Location: New Greens
(51.7702°N, 0.3379°W)
Time: 15:02:22
(UTC+00:00)

Envisat - Pass Details

Date: 28 January 2019
Orbit: 764 x 766 km, 98.1° (Epoch: 17 October)

Event Time Altitude Azimuth Distance (km) Brightness Sun altitude
Rises 19:46:27 0° 202° (SSW) 3,223 6.4 -28.3°
Reaches altitude 10° 19:49:11 10° 216° (SW) 2,302 5.8 -28.7°
Maximum altitude 19:53:13 23° 269° (W) 1,574 5.3 -29.4°
Drops below altitude 10° 19:57:16 10° 322° (NW) 2,315 6.0 -30.0°
Sets 20:00:02 0° 337° (NNW) 3,246 6.7 -30.4°
